Flag for Switzerland Weather past 2 weeks in Riehen, Basel-Stadt, Switzerland

Now
74 °F

Scattered clouds.


Feels Like: 77 °F
Forecast: 56 / 79 °F
Wind: 5 mph from North

Location: Bale-Mulhouse

Current Time: Jul 31, 2014 at 2:35:39 PM

Latest Report: Jul 31, 2014 at 2:00 PM


Visibility: 16 mi

Pressure: 29.95 "Hg

Humidity: 62%

Dew point: 60 °F

Location of RiehenLocation

Historic Weather in Riehen — Graph

°F

Riehen temperature yesterday

Maximum temperature yesterday: 70 °F (at 4:00 PM)
Minimum temperature yesterday: 61 °F (at 5:00 AM)
Average temperature yesterday: 65 °F

Past Weeks' High & Low Weather Summary

 TemperatureHumidityPressure
High92 °F (Jul 18, 5:00 PM)97% (Jul 17, 7:00 AM)30.18 "Hg (Jul 17, 7:00 AM)
Low55 °F (Jul 25, 6:00 AM)19% (Jul 18, 5:00 PM)29.78 "Hg (Jul 19, 7:00 PM)
Average69 °F79%29.93 "Hg
* Reported Jul 16 1:00 PM — Jul 31 1:00 PM, Riehen, Weather by CustomWeather, © 2014

Note: Actual official high and low records may vary slightly from our data, if they occured in-between our weather recording intervals... More about our weather records

Advertising

Riehen weather history for previous 24 hours

 ConditionsComfort  
Time TempWeatherWind HumidityBarometerVisibility
1:00 PM
Jul 31
72 °FScattered clouds.6 mph70%29.97 "Hg12 mi
12:00 PM70 °FScattered clouds.6 mph78%29.98 "Hg9 mi
11:00 AM68 °FPartly sunny.3 mph81%29.99 "Hg7 mi
10:00 AM65 °FLow clouds.2 mph87%30.01 "Hg5 mi
9:00 AM63 °FFog.2 mph95%30.01 "Hg2 mi
8:00 AM62 °FFog.3 mph97%30.01 "Hg2 mi
7:00 AM61 °FLow clouds.1 mph97%30.00 "Hg4 mi
6:00 AM61 °FOvercast.2 mph96%29.99 "Hg3 mi
5:00 AM62 °FOvercast.2 mph95%29.98 "Hg4 mi
4:00 AM64 °FOvercast.2 mph95%29.98 "Hg4 mi
3:00 AM64 °FOvercast.2 mph94%29.98 "Hg6 mi
2:00 AM65 °FOvercast.1 mph94%29.98 "Hg6 mi
1:00 AM65 °FOvercast.3 mph96%29.98 "Hg3 mi
12:00 AM66 °FLow clouds.3 mph96%29.96 "Hg4 mi
11:00 PM
Jul 30
66 °FLow clouds.2 mph96%29.96 "Hg6 mi
10:00 PM66 °FOvercast.1 mph96%29.95 "Hg6 mi
9:00 PM67 °FLow clouds.1 mph95%29.93 "Hg6 mi
8:00 PM67 °FLow clouds.2 mph96%29.91 "Hg6 mi
7:00 PM66 °FRain showers. Low clouds.5 mph95%29.90 "Hg1 mi
6:00 PM66 °FSprinkles. Overcast.5 mph95%29.90 "Hg4 mi
5:00 PM69 °FRain showers. Overcast.9 mph86%29.88 "Hg1 mi
4:00 PM70 °FLight rain. Overcast.6 mph81%29.88 "Hg7 mi
3:00 PM68 °FLight rain. Overcast.6 mph87%29.87 "Hg6 mi
2:00 PM67 °FLight rain. Overcast.7 mph88%29.86 "Hg6 mi
Weather by CustomWeather, © 2014

See weather overviewHow to use our weather pages